Regional Weather Roundup
Issued by NWS Newport/Morehead, NC

Home | Current Version | Previous Version | Text Only | Print | Product List | Glossary On
Versions: 1 2 3 4 5 6 7 8 9 10 11 12 13 14 15 16 17 18 19 20 21 22 23 24 25 26 27 28 29 30 31 32 33 34 35 36 37 38 39 40 41 42 43 44 45 46 47 48 49 50
000
ASUS42 KMHX 121825
RWRMHX
WEATHER ROUNDUP FOR EASTERN NORTH CAROLINA
NATIONAL WEATHER SERVICE NEWPORT/MOREHEAD CITY NC
100 PM EST TUE DEC 12 2017

NOTE: "FAIR" INDICATES FEW OR NO CLOUDS BELOW 12,000 FEET
WITH NO SIGNIFICANT WEATHER AND/OR OBSTRUCTIONS TO VISIBILITY

NCZ015>017-031-032-045>047-102-103-121900-
NORTH COAST

CITY           SKY/WX    TMP DP  RH WIND       PRES   REMARKS
EDENTON        MOSUNNY   56  41  57 W8        29.59F
ELIZABETH CITY MOSUNNY   56  43  61 SW12      29.57F
KITTY HAWK     PTCLDY    56  39  52 W8G18     29.57F
MANTEO         MOSUNNY   56  38  52 W17G23    29.58F

$$

NCZ045>047-081-094-103-104-121900-
CENTRAL COAST

CITY           SKY/WX    TMP DP  RH WIND       PRES   REMARKS
FRISCO         MOSUNNY   63  47  55 SW23G35   29.58F

$$

NCZ095-097-098-100-101-121900-
SOUTHERN COAST

CITY           SKY/WX    TMP DP  RH WIND       PRES   REMARKS
BEAUFORT       SUNNY     61  49  64 SW17G28   29.60F
CEDAR ISLAND   NOT AVBL
JACKSONVILLE   SUNNY     61  40  45 W12G18    29.62F
PINEY ISLAND     N/A    N/A N/A N/A SW26G35   29.59F
WILMINGTON     SUNNY     64  40  41 SW9G23    29.62F


$$

NCZ011>013-027>030-043-044-078>080-089-090>093-098-121900-
COASTAL PLAIN

CITY           SKY/WX    TMP DP  RH WIND       PRES   REMARKS
AHOSKIE        MOSUNNY   51  37  57 CALM      29.59F
CLINTON        MOSUNNY   55  39  54 W6        29.64F
ELIZABETHTOWN  NOT AVBL
GOLDSBORO      MOSUNNY   54  37  53 W12       29.61F
GREENVILLE     PTSUNNY   54  36  50 W10       29.64F
HAVELOCK       MOSUNNY   62  47  57 SW14      29.60F
KENANSVILLE    SUNNY     57  39  51 W8        29.63F
KINSTON        SUNNY     57  39  51 SW10      29.62F
NEW BERN       SUNNY     58  40  51 W13G22    29.62F
RICHLANDS      SUNNY     59  41  51 W10G20    29.63F
ROCKY MOUNT    MOSUNNY   52  38  58 SW12      29.62F
WASHINGTON     MOSUNNY   56  38  51 W9        29.60F
WHITEVILLE     SUNNY     58  40  50 SW6       29.63F

$$

AMZ130-135-150-152-154-156-158-170-250-252-270-ANZ085-086-088-633-658-670-121900-
MARINE OBSERVATIONS

STATION/POSITION TIME  TEMP    WIND        PRES    WAVE   SWELL
                       AIR SEA DIR/SP/G            HT/PER HT/PER
                 (UTC) (F)     (DEG/KT/KT) (MB)    (FT/S) (FT/S)
CHESAPEAKE LIGHT NOT AVBL
64 E VA BEACH    1750   55 61  240/ 21/ 23 1000.7    7/ 6   2/ 9
DUCK             1800   51 56  250/ 13/ 18 1001.0
2 E DUCK         1800      56                N/A     2/12
OREGON INLET     1800          230/ 12/ 14 1001.5
13E OREGON INLT  1748      58                N/A     5/ 6   3/ 6
HATTERAS CG      1800   62 56  230/ 19/ 29 1001.3
DIAMOND BUOY     1810   66 74  230/ 29/ 37 1001.9
CAPE LOOKOUT     1800          220/ 15/ 19 1002.9
BEAUFORT LAB     1800   60 52  220/  7/ 13 1002.4
30 SE NEW RVR IN 1808   63 66  220/ 21/ 27 1002.5
30 SE NEW RVR IN 1800      66                N/A     9/ 7   2/11
27 SE WRIGHTSVLE 1808   63 66  220/ 25/ 33 1003.4
5 SE WRIGHTSVLE  1808   59 58  230/ 17/ 25 1003.0
225 S CAPE HAT   1750   70 75  220/ 21/ 27 1008.0    7/ 6   2/ 9
41 SE CHARLESTON 1810   65 75  220/ 25/ 31 1004.5

$$




USA.gov is the U.S. government's official web portal to all federal, state and local government web resources and services.